ES'HAIL 2 (43700 NORAD) Tracking and Keplerian Element Data

This shows tracking and keplerian element data for the satellite.

Feedback or suggestion? Click here.




ElementValue
Catalog43700
NameES'HAIL 2
Epoch Orbit38
Epoch Day344.22271666
Epoch Year2018
RAAN258.4532
Inclination0.0509
Eccentricity5.26E-05
Argument of Perigee48.1926
Mean Anonmoly236.4796
Mean Motion1.00270924
Decay Rate1.43E-06
L11 43700U 18090A 18344.22271666 .00000143 00000-0 00000+0 0 9991
L22 43700 0.0509 258.4532 0000526 48.1926 236.4796 1.00270924 385

Live tracking and technical data element details for ES'HAIL 2 (NORAD 43700). ES'HAIL 2 can be tracked NOW for your location showing map with azimuth and elevation plus other details from your city location.

Track the satellite on the map from your city or location and see movement details for azimuth, elevation, latitude, longitude, range, height, and movement on the map or in text.







IsCatalogInMostPopularTable: catalog: 43700, numindb: 523
Update: records affected: 1



GetName: 43700 ES'HAIL 2

Hit Count: updated at: Tue, 11 Dec 2018 01:52:58 GMT